Вернуться в каталог

ARIANE 5 DEB

SYLDA

АктивенHEO
NORAD 29274·DEBRIS·🇫🇷 France

Запущен Aug 11, 2006 с Guiana Space Centre

Loading…

Ближайшие Пролёты (ближайшие 24 часа)

TLE

СвежийSource: Space-Track

Эпоха: Sep 14, 2026, 08:11 UTC

1 29274U 06033C   26257.34124404  .00001759  00000-0  24012-2 0  9993
2 29274   5.8803  63.2132 5599376 202.6065 117.7491  4.49354289253910

Отслеживайте ARIANE 5 DEB в реальном времени с AllMySat

Download on the App Store